Change the Weather History Date:

Thursday, June 19, 2014

  Actual Average Record
Temperature  
Mean Temperature 78 °F -  
Max Temperature 85 °F 86 °F 101 °F (1953)
Min Temperature 70 °F 61 °F 44 °F (1976)
Cooling Degree Days 12    
Growing Degree Days 28 (Base 50)    
Moisture  
Dew Point 63 °F    
Average Humidity 58    
Maximum Humidity 80    
Minimum Humidity 38    
Precipitation  
Precipitation 0.00 in - - ()
Sea Level Pressure  
Sea Level Pressure 29.88 in    
Wind  
Wind Speed 11 mph (WSW)    
Max Wind Speed 18 mph    
Max Gust Speed 29 mph    
Visibility 10 miles    
Events      
Averages and records for this station are not official NWS values.
T = Trace of Precipitation, MM = Missing Value Source: NWS Daily Summary

Daily Weather History Graph

Daily Weather History Graph

Search for Another Location

Airport or City:

Trip Planner

Search our weather history database for the weather conditions in past years. The results will help you decide how hot, cold, wet, or windy it might be!

Date:

Astronomy

Jun. 19, 2014 Rise Set
Actual Time 5:52 AM CDT 9:02 PM CDT
Civil Twilight 5:18 AM CDT 9:36 PM CDT
Nautical Twilight 4:34 AM CDT 10:20 PM CDT
Astronomical Twilight 3:42 AM CDT 11:12 PM CDT
Moon 1:02 AM CDT 1:28 PM CDT
Length of Visible Light 16h 18m
Length of Day
15h 10m
Waning Gibbous, 51% of the Moon is Illuminated
Jun 19
Waning Gibbous
Jun 19
Last Quarter
Jun 27
New
Jul 5
First Quarter
Jul 12
Full

Hourly Weather History & Observations

Time (CDT) Temp. Heat Index Dew Point Humidity Pressure Visibility Wind Dir Wind Speed Gust Speed Precip Events Conditions
12:15 AM 82.4 °F 86.7 °F 71.1 °F 68% 29.79 in 10.0 mi South 15.0 mph 20.7 mph N/A   Clear
12:35 AM 81.9 °F 86.2 °F 71.1 °F 70% 29.79 in 10.0 mi South 12.7 mph 20.7 mph N/A   Clear
12:55 AM 81.7 °F 85.8 °F 71.2 °F 70% 29.78 in 10.0 mi South 13.8 mph - N/A   Clear
1:15 AM 81.7 °F 86.0 °F 71.4 °F 71% 29.77 in 10.0 mi South 13.8 mph 20.7 mph N/A   Clear
1:35 AM 81.3 °F 85.6 °F 71.6 °F 72% 29.76 in 10.0 mi SSE 11.5 mph 21.9 mph N/A   Clear
1:55 AM 80.6 °F 84.6 °F 71.6 °F 74% 29.75 in 10.0 mi SSE 12.7 mph - N/A   Clear
2:15 AM 80.1 °F 83.7 °F 71.6 °F 75% 29.74 in 10.0 mi SSE 12.7 mph 18.4 mph N/A   Clear
2:35 AM 79.9 °F - 71.6 °F 76% 29.73 in 10.0 mi SSE 12.7 mph 17.3 mph N/A   Clear
2:55 AM 79.9 °F - 71.6 °F 76% 29.74 in 10.0 mi South 15.0 mph 19.6 mph N/A   Clear
3:15 AM 79.3 °F - 71.6 °F 77% 29.77 in 10.0 mi South 11.5 mph 19.6 mph N/A   Clear
3:35 AM 79.7 °F - 71.6 °F 76% 29.79 in 10.0 mi South 6.9 mph - N/A   Clear
3:55 AM 79.3 °F - 71.2 °F 76% 29.79 in 10.0 mi South 10.4 mph - N/A   Scattered Clouds
4:15 AM 79.3 °F - 70.9 °F 75% 29.79 in 10.0 mi South 8.1 mph - N/A   Scattered Clouds
4:35 AM 79.0 °F - 70.7 °F 76% 29.79 in 10.0 mi South 5.8 mph - N/A   Scattered Clouds
4:55 AM 78.8 °F - 70.5 °F 76% 29.78 in 10.0 mi SSE 4.6 mph - N/A   Scattered Clouds
5:15 AM 78.8 °F - 70.7 °F 76% 29.81 in 10.0 mi SSW 4.6 mph - N/A   Mostly Cloudy
5:55 AM 73.8 °F - 64.9 °F 74% 29.85 in 10.0 mi NW 18.4 mph 27.6 mph N/A   Mostly Cloudy
6:15 AM 72.1 °F - 63.1 °F 73% 29.88 in 10.0 mi NW 18.4 mph 27.6 mph N/A   Scattered Clouds
6:35 AM 71.6 °F - 60.1 °F 67% 29.91 in 10.0 mi NW 18.4 mph 28.8 mph N/A   Mostly Cloudy
6:55 AM 71.4 °F - 59.2 °F 65% 29.89 in 10.0 mi NNW 11.5 mph 23.0 mph N/A   Mostly Cloudy
7:15 AM 72.7 °F - 58.3 °F 60% 29.88 in 10.0 mi North 10.4 mph 18.4 mph N/A   Scattered Clouds
7:35 AM 73.2 °F - 58.5 °F 60% 29.88 in 10.0 mi North 10.4 mph 17.3 mph N/A   Clear
7:55 AM 73.9 °F - 58.5 °F 58% 29.86 in 10.0 mi NNE 10.4 mph 18.4 mph N/A   Clear
8:15 AM 74.8 °F - 57.2 °F 54% 29.86 in 10.0 mi East 8.1 mph - N/A   Clear
8:55 AM 77.2 °F - 55.8 °F 47% 29.85 in 10.0 mi ENE 10.4 mph 18.4 mph N/A   Clear
9:15 AM 76.3 °F - 57.2 °F 52% 29.86 in 10.0 mi East 11.5 mph - N/A   Clear
9:35 AM 77.5 °F - 57.9 °F 51% 29.86 in 10.0 mi East 8.1 mph - N/A   Clear
9:55 AM 77.5 °F - 57.7 °F 50% 29.88 in 10.0 mi WNW 6.9 mph - N/A   Scattered Clouds
10:15 AM 79.0 °F - 58.8 °F 50% 29.88 in 10.0 mi Calm Calm - N/A   Mostly Cloudy
10:35 AM 79.7 °F - 59.9 °F 51% 29.88 in 10.0 mi West 5.8 mph - N/A   Scattered Clouds
10:55 AM 79.7 °F - 59.5 °F 50% 29.89 in 10.0 mi West 9.2 mph - N/A   Clear
11:15 AM 80.6 °F 81.0 °F 58.5 °F 47% 29.89 in 10.0 mi West 10.4 mph - N/A   Clear
11:35 AM 79.7 °F - 62.4 °F 55% 29.89 in 10.0 mi West 15.0 mph 19.6 mph N/A   Clear
11:55 AM 78.6 °F - 61.3 °F 55% 29.91 in 10.0 mi West 11.5 mph 16.1 mph N/A   Clear
12:15 PM 78.4 °F - 62.1 °F 57% 29.92 in 10.0 mi West 11.5 mph - N/A   Clear
12:35 PM 77.9 °F - 61.3 °F 57% 29.92 in 10.0 mi West 10.4 mph - N/A   Scattered Clouds
12:55 PM 77.0 °F - 61.0 °F 58% 29.92 in 10.0 mi West 8.1 mph - N/A   Mostly Cloudy
1:15 PM 77.5 °F - 60.8 °F 56% 29.92 in 10.0 mi West 9.2 mph - N/A   Mostly Cloudy
1:35 PM 79.0 °F - 60.8 °F 54% 29.92 in 10.0 mi WSW 11.5 mph - N/A   Scattered Clouds
1:55 PM 79.5 °F - 60.8 °F 53% 29.92 in 10.0 mi West 5.8 mph - N/A   Clear
2:15 PM 81.9 °F 82.8 °F 62.2 °F 51% 29.91 in 10.0 mi WSW 8.1 mph - N/A   Clear
2:35 PM 81.5 °F 82.4 °F 61.7 °F 51% 29.91 in 10.0 mi WSW 10.4 mph 16.1 mph N/A   Clear
2:55 PM 82.0 °F 82.8 °F 61.5 °F 50% 29.90 in 10.0 mi WSW 11.5 mph - N/A   Clear
3:15 PM 82.9 °F 83.7 °F 61.9 °F 49% 29.90 in 10.0 mi WSW 12.7 mph - N/A   Clear
3:35 PM 83.3 °F 83.7 °F 61.2 °F 47% 29.89 in 10.0 mi WSW 12.7 mph - N/A   Clear
3:55 PM 84.4 °F 85.0 °F 61.9 °F 47% 29.90 in 10.0 mi West 10.4 mph - N/A   Clear
4:15 PM 84.7 °F 85.0 °F 61.0 °F 45% 29.89 in 10.0 mi SW 12.7 mph - N/A   Clear
4:35 PM 85.5 °F 85.0 °F 59.2 °F 41% 29.90 in 10.0 mi West 13.8 mph 19.6 mph N/A   Clear
4:55 PM 85.5 °F 85.0 °F 59.2 °F 41% 29.90 in 10.0 mi WNW 13.8 mph 18.4 mph N/A   Clear
5:15 PM 85.1 °F 84.6 °F 58.8 °F 41% 29.91 in 10.0 mi WNW 12.7 mph - N/A   Clear
5:35 PM 85.1 °F 84.6 °F 59.0 °F 41% 29.91 in 10.0 mi West 9.2 mph - N/A   Clear
5:55 PM 85.3 °F 84.8 °F 59.0 °F 41% 29.92 in 10.0 mi West 12.7 mph 17.3 mph N/A   Clear
6:15 PM 85.1 °F 84.3 °F 57.7 °F 39% 29.92 in 10.0 mi WNW 9.2 mph - N/A   Clear
6:35 PM 85.1 °F 84.3 °F 57.4 °F 39% 29.92 in 10.0 mi West 11.5 mph - N/A   Clear
6:55 PM 84.6 °F 83.5 °F 56.5 °F 38% 29.93 in 10.0 mi WNW 10.4 mph - N/A   Clear
7:15 PM 83.5 °F 82.6 °F 56.1 °F 39% 29.94 in 10.0 mi NW 9.2 mph - N/A   Clear
7:35 PM 83.3 °F 82.6 °F 56.7 °F 40% 29.94 in 10.0 mi WNW 3.5 mph - N/A   Clear
7:55 PM 83.3 °F 82.5 °F 55.8 °F 39% 29.94 in 10.0 mi NW 3.5 mph - N/A   Clear
8:15 PM 82.6 °F 82.2 °F 57.4 °F 42% 29.95 in 10.0 mi WNW 3.5 mph - N/A   Clear
8:35 PM 81.5 °F 81.6 °F 58.1 °F 45% 29.95 in 10.0 mi NW 3.5 mph - N/A   Clear
8:55 PM 78.3 °F - 59.2 °F 52% 29.96 in 10.0 mi WNW 3.5 mph - N/A   Clear
9:15 PM 76.1 °F - 61.3 °F 60% 29.97 in 7.0 mi Calm Calm - N/A   Clear
9:35 PM 75.6 °F - 61.7 °F 62% 29.97 in 10.0 mi Calm Calm - N/A   Clear
9:55 PM 75.9 °F - 61.0 °F 60% 29.99 in 10.0 mi Calm Calm - N/A   Clear
10:15 PM 74.8 °F - 62.2 °F 65% 29.99 in 10.0 mi Calm Calm - N/A   Clear
10:35 PM 72.5 °F - 64.2 °F 75% 30.00 in 10.0 mi Calm Calm - N/A   Clear
11:15 PM 72.5 °F - 65.1 °F 78% 30.00 in 10.0 mi Calm Calm - N/A   Clear
11:35 PM 70.9 °F - 64.6 °F 80% 30.00 in 10.0 mi Calm Calm - N/A   Clear
11:55 PM 70.3 °F - 63.1 °F 78% 30.00 in 10.0 mi Calm Calm - N/A   Clear